Location: Bijele Vode
(45.2833°N, 16.2000°E)
Time: 02:33:44
(UTC+00:00)

Nauka - Pass Details

Date: 05 October 2021
Orbit: 417 x 423 km, 51.6° (Epoch: 24 October)

Event Time Altitude Azimuth Distance (km) Brightness Sun altitude
Rises 18:22:45 0° 287° (WNW) 2,364 ? -20.9°
Reaches altitude 10° 18:25:32 10° 262° (W) 1,497 ? -21.4°
Maximum altitude 18:27:27 15° 227° (SW) 1,249 ? -21.7°
Enters shadow 18:28:40 13° 203° (SSW) 1,350 ? -21.9°
